Tracking 29892 objects as of 21-Nov-2024
HD Live streaming from Space Station
objects crossing your sky now

PSLV R/B

Track PSLV R/B now!
10-day predictions


NORAD ID: 44805
Int'l Code: 2019-081B
Perigee: 456.4 km
Apogee: 502.2 km
Inclination: 97.3 °
Period: 94.0 minutes
Semi major axis: 6850 km
RCS: Unknown
Launch date: November 27, 2019
Source: India (IND)
Launch site: SRIHARIKOTA (SRI)

Note: This is a ROCKET BODY
Your satellite tracking list
Your tracking list is empty




NASA's NSSDC Master Catalog

Two Line Element Set (TLE):
1 44805U 19081B   24324.99988418  .00017530  00000-0  57318-3 0  9994
2 44805  97.2550 359.5045 0033393  29.3601 330.9508 15.31222490275780
Source of the keplerian elements: AFSPC